Simultaneous Nadir Overpasses (SNOs) Predictions

Prediction of SNOs between METOP-A and NPP Satellite Orbit:

Table of predicted SNOs for the next 14.0 days since TLE Epoch: 12/3/2020
Index Date (METOP-A) Time (METOP-A) Lat,Lon (METOP-A) SZA (METOP-A ) Date (NPP) Time (NPP) Lat,Lon (NPP) SZA (NPP ) Distance(km) Time Diff (sec)
1 12/16/2020 12:55:42 76.62, -29.00 100.26 12/16/2020 12:54:36 76.62, -32.35 100.48 86.15 66
2 12/16/2020 13:46:26 -76.52, 137.97 79.82 12/16/2020 13:45:18 -76.51, 135.37 79.66 67.29 68
3 12/16/2020 14:37:11 76.28, -55.54 100.00 12/16/2020 14:35:59 76.31, -56.58 100.11 27.54 72
4 12/16/2020 15:27:55 -76.18, 111.44 80.08 12/16/2020 15:26:40 -76.16, 111.27 80.08 5.24 75
5 12/16/2020 16:18:36 76.12, -81.42 99.88 12/16/2020 16:17:25 76.14, -81.34 99.90 2.64 71
6 12/16/2020 17:09:18 -76.12, 85.88 80.13 12/16/2020 17:08:09 -76.12, 86.03 80.12 4.05 69
7 12/16/2020 17:59:57 76.15,-106.67 99.90 12/16/2020 17:58:55 76.14,-106.74 99.92 1.87 62
8 12/16/2020 18:50:39 -76.14, 60.63 80.11 12/16/2020 18:49:39 -76.13, 60.63 80.11 1.73 60
9 12/16/2020 19:41:19 76.13,-132.08 99.89 12/16/2020 19:40:25 76.15,-132.14 99.93 2.81 54
10 12/16/2020 20:32:01 -76.12, 35.22 80.12 12/16/2020 20:31:09 -76.13, 35.23 80.09 1.31 52
11 12/16/2020 21:22:41 76.11,-157.49 99.88 12/16/2020 21:21:54 76.11,-157.38 99.89 2.90 47
12 12/16/2020 22:13:22 -76.15, 9.97 80.09 12/16/2020 22:12:39 -76.14, 9.83 80.08 3.75 43
13 12/16/2020 23:04:02 76.14, 177.26 99.90 12/16/2020 23:03:24 76.12, 177.22 99.90 2.12 38
14 12/16/2020 23:54:44 -76.13, -15.44 80.11 12/16/2020 23:54:08 -76.10, -15.41 80.12 3.01 36
15 12/17/2020 00:45:24 76.12, 151.85 99.89 12/17/2020 00:44:54 76.13, 151.82 99.91 1.50 30
16 12/17/2020 01:36:06 -76.11, -40.85 80.12 12/17/2020 01:35:38 -76.11, -40.81 80.11 0.93 28
17 12/17/2020 02:26:46 76.10, 126.44 99.88 12/17/2020 02:26:23 76.09, 126.58 99.87 3.64 23
18 12/17/2020 03:17:28 -76.09, -66.25 80.13 12/17/2020 03:17:08 -76.12, -66.21 80.10 3.31 20
19 12/17/2020 04:08:07 76.12, 101.19 99.90 12/17/2020 04:07:53 76.10, 101.18 99.88 3.00 14



Historial Predications of SNOs between METOP-A and NPP
